Year,Month,Day,Hour,Minute,Value (Times are PST for temperature in C)
2009,06,01,00,00,12.70
2009,06,01,00,01,12.70
2009,06,01,00,02,12.70
2009,06,01,00,03,12.70
2009,06,01,00,04,12.70
2009,06,01,00,05,12.70
2009,06,01,00,06,12.80
2009,06,01,00,07,12.80
2009,06,01,00,08,12.90
2009,06,01,00,09,12.90
2009,06,01,00,10,13.00
2009,06,01,00,11,13.10
2009,06,01,00,12,13.20
2009,06,01,00,13,13.20
2009,06,01,00,14,13.20
2009,06,01,00,15,13.30
2009,06,01,00,16,13.30
2009,06,01,00,17,13.30
2009,06,01,00,18,13.30
2009,06,01,00,19,13.30
2009,06,01,00,20,13.40
2009,06,01,00,21,13.40
2009,06,01,00,22,13.40
2009,06,01,00,23,13.40
2009,06,01,00,24,13.40
2009,06,01,00,25,13.40
2009,06,01,00,26,13.40
2009,06,01,00,27,13.30
2009,06,01,00,28,13.30
2009,06,01,00,29,13.30
2009,06,01,00,30,13.30
2009,06,01,00,31,13.40
2009,06,01,00,32,13.40
2009,06,01,00,33,13.40
2009,06,01,00,34,13.40
2009,06,01,00,35,13.40
2009,06,01,00,36,13.40
2009,06,01,00,37,13.40
2009,06,01,00,38,13.40
2009,06,01,00,39,13.40
2009,06,01,00,40,13.40
2009,06,01,00,41,13.40
2009,06,01,00,42,13.30
2009,06,01,00,43,13.30
2009,06,01,00,44,13.40
2009,06,01,00,45,13.50
2009,06,01,00,46,13.60
2009,06,01,00,47,13.80
2009,06,01,00,48,13.90
2009,06,01,00,49,13.90
2009,06,01,00,50,14.00
2009,06,01,00,51,14.00
2009,06,01,00,52,14.10
2009,06,01,00,53,14.20
2009,06,01,00,54,14.30
2009,06,01,00,55,14.50
2009,06,01,00,56,14.60
2009,06,01,00,57,14.70
2009,06,01,00,58,14.70
2009,06,01,00,59,14.70
2009,06,01,01,00,14.70
2009,06,01,01,01,14.70
2009,06,01,01,02,14.70
2009,06,01,01,03,14.80
2009,06,01,01,04,14.80
2009,06,01,01,05,14.80
2009,06,01,01,06,14.80
2009,06,01,01,07,14.80
2009,06,01,01,08,14.80
2009,06,01,01,09,14.80
2009,06,01,01,10,14.80
2009,06,01,01,11,14.80
2009,06,01,01,12,14.80
2009,06,01,01,13,14.80
2009,06,01,01,14,14.80
2009,06,01,01,15,14.80
2009,06,01,01,16,14.80
2009,06,01,01,17,14.80
2009,06,01,01,18,14.80
2009,06,01,01,19,14.80
2009,06,01,01,20,14.70
2009,06,01,01,21,14.70
2009,06,01,01,22,14.70
2009,06,01,01,23,14.70
2009,06,01,01,24,14.60
2009,06,01,01,25,14.60
2009,06,01,01,26,14.60
2009,06,01,01,27,14.50
2009,06,01,01,28,14.50
2009,06,01,01,29,14.40
2009,06,01,01,30,14.40
2009,06,01,01,31,14.40
2009,06,01,01,32,14.40
2009,06,01,01,33,14.30
2009,06,01,01,34,14.30
2009,06,01,01,35,14.30
2009,06,01,01,36,14.30
2009,06,01,01,37,14.30
2009,06,01,01,38,14.20
2009,06,01,01,39,14.20
2009,06,01,01,40,14.20
2009,06,01,01,41,14.20
2009,06,01,01,42,14.20
2009,06,01,01,43,14.20
2009,06,01,01,44,14.20
2009,06,01,01,45,14.20
2009,06,01,01,46,14.10
2009,06,01,01,47,14.10
2009,06,01,01,48,14.10
2009,06,01,01,49,14.10
2009,06,01,01,50,14.10
2009,06,01,01,51,14.20
2009,06,01,01,52,14.20
2009,06,01,01,53,14.20
2009,06,01,01,54,14.20
2009,06,01,01,55,14.20
2009,06,01,01,56,14.30
2009,06,01,01,57,14.30
2009,06,01,01,58,14.30
2009,06,01,01,59,14.30
2009,06,01,02,00,14.40
2009,06,01,02,01,14.40
2009,06,01,02,02,14.40
2009,06,01,02,03,14.40
2009,06,01,02,04,14.40
2009,06,01,02,05,14.40
2009,06,01,02,06,14.40
2009,06,01,02,07,14.50
2009,06,01,02,08,14.50
2009,06,01,02,09,14.50
2009,06,01,02,10,14.50
2009,06,01,02,11,14.50
2009,06,01,02,12,14.50
2009,06,01,02,13,14.50
2009,06,01,02,14,14.60
2009,06,01,02,15,14.60
2009,06,01,02,16,14.60
2009,06,01,02,17,14.60
2009,06,01,02,18,14.60
2009,06,01,02,19,14.60
2009,06,01,02,20,14.70
2009,06,01,02,21,14.70
2009,06,01,02,22,14.70
2009,06,01,02,23,14.80
2009,06,01,02,24,14.80
2009,06,01,02,25,14.80
2009,06,01,02,26,14.80
2009,06,01,02,27,14.80
2009,06,01,02,28,14.80
2009,06,01,02,29,14.80
2009,06,01,02,30,14.80
2009,06,01,02,31,14.80
2009,06,01,02,32,14.80
2009,06,01,02,33,14.80
2009,06,01,02,34,14.80
2009,06,01,02,35,14.80
2009,06,01,02,36,14.70
2009,06,01,02,37,14.70
2009,06,01,02,38,14.70
2009,06,01,02,39,14.70
2009,06,01,02,40,14.70
2009,06,01,02,41,14.70
2009,06,01,02,42,14.60
2009,06,01,02,43,14.60
2009,06,01,02,44,14.60
2009,06,01,02,45,14.60
2009,06,01,02,46,14.50
2009,06,01,02,47,14.50
2009,06,01,02,48,14.40
2009,06,01,02,49,14.40
2009,06,01,02,50,14.40
2009,06,01,02,51,14.30
2009,06,01,02,52,14.30
2009,06,01,02,53,14.30
2009,06,01,02,54,14.20
2009,06,01,02,55,14.20
2009,06,01,02,56,14.10
2009,06,01,02,57,14.10
2009,06,01,02,58,14.10
2009,06,01,02,59,14.00
2009,06,01,03,00,14.00
2009,06,01,03,01,13.90
2009,06,01,03,02,13.90
2009,06,01,03,03,13.80
2009,06,01,03,04,13.80
2009,06,01,03,05,13.80
2009,06,01,03,06,13.80
2009,06,01,03,07,13.70
2009,06,01,03,08,13.70
2009,06,01,03,09,13.70
2009,06,01,03,10,13.60
2009,06,01,03,11,13.60
2009,06,01,03,12,13.50
2009,06,01,03,13,13.50
2009,06,01,03,14,13.40
2009,06,01,03,15,13.40
2009,06,01,03,16,13.40
2009,06,01,03,17,13.30
2009,06,01,03,18,13.30
2009,06,01,03,19,13.30
2009,06,01,03,20,13.20
2009,06,01,03,21,13.20
2009,06,01,03,22,13.20
2009,06,01,03,23,13.10
2009,06,01,03,24,13.10
2009,06,01,03,25,13.10
2009,06,01,03,26,13.00
2009,06,01,03,27,13.00
2009,06,01,03,28,12.90
2009,06,01,03,29,12.90
2009,06,01,03,30,12.90
2009,06,01,03,31,12.80
2009,06,01,03,32,12.80
2009,06,01,03,33,12.80
2009,06,01,03,34,12.80
2009,06,01,03,35,12.80
2009,06,01,03,36,12.80
2009,06,01,03,37,12.80
2009,06,01,03,38,12.80
2009,06,01,03,39,12.80
2009,06,01,03,40,12.70
2009,06,01,03,41,12.70
2009,06,01,03,42,12.70
2009,06,01,03,43,12.70
2009,06,01,03,44,12.70
2009,06,01,03,45,12.70
2009,06,01,03,46,12.70
2009,06,01,03,47,12.70
2009,06,01,03,48,12.70
2009,06,01,03,49,12.70
2009,06,01,03,50,12.70
2009,06,01,03,51,12.70
2009,06,01,03,52,12.70
2009,06,01,03,53,12.70
2009,06,01,03,54,12.70
2009,06,01,03,55,12.70
2009,06,01,03,56,12.70
2009,06,01,03,57,12.60
2009,06,01,03,58,12.60
2009,06,01,03,59,12.60
2009,06,01,04,00,12.60
2009,06,01,04,01,12.50
2009,06,01,04,02,12.50
2009,06,01,04,03,12.50
2009,06,01,04,04,12.40
2009,06,01,04,05,12.40
2009,06,01,04,06,12.40
2009,06,01,04,07,12.30
2009,06,01,04,08,12.30
2009,06,01,04,09,12.30
2009,06,01,04,10,12.20
2009,06,01,04,11,12.20
2009,06,01,04,12,12.20
2009,06,01,04,13,12.20
2009,06,01,04,14,12.20
2009,06,01,04,15,12.10
2009,06,01,04,16,12.10
2009,06,01,04,17,12.10
2009,06,01,04,18,12.10
2009,06,01,04,19,12.00
2009,06,01,04,20,12.00
2009,06,01,04,21,12.00
2009,06,01,04,22,11.90
2009,06,01,04,23,11.90
2009,06,01,04,24,11.90
2009,06,01,04,25,11.90
2009,06,01,04,26,11.80
2009,06,01,04,27,11.80
2009,06,01,04,28,11.80
2009,06,01,04,29,11.80
2009,06,01,04,30,11.80
2009,06,01,04,31,11.80
2009,06,01,04,32,11.90
2009,06,01,04,33,11.90
2009,06,01,04,34,11.90
2009,06,01,04,35,12.00
2009,06,01,04,36,12.00
2009,06,01,04,37,12.10
2009,06,01,04,38,12.10
2009,06,01,04,39,12.20
2009,06,01,04,40,12.20
2009,06,01,04,41,12.20
2009,06,01,04,42,12.30
2009,06,01,04,43,12.30
2009,06,01,04,44,12.30
2009,06,01,04,45,12.30
2009,06,01,04,46,12.30
2009,06,01,04,47,12.30
2009,06,01,04,48,12.30
2009,06,01,04,49,12.30
2009,06,01,04,50,12.30
2009,06,01,04,51,12.40
2009,06,01,04,52,12.40
2009,06,01,04,53,12.40
2009,06,01,04,54,12.30
2009,06,01,04,55,12.30
2009,06,01,04,56,12.30
2009,06,01,04,57,12.30
2009,06,01,04,58,12.30
2009,06,01,04,59,12.30
2009,06,01,05,00,12.30
2009,06,01,05,01,12.30
2009,06,01,05,02,12.30
2009,06,01,05,03,12.30
2009,06,01,05,04,12.30
2009,06,01,05,05,12.30
2009,06,01,05,06,12.30
2009,06,01,05,07,12.30
2009,06,01,05,08,12.30
2009,06,01,05,09,12.30
2009,06,01,05,10,12.30
2009,06,01,05,11,12.30
2009,06,01,05,12,12.40
2009,06,01,05,13,12.40
2009,06,01,05,14,12.40
2009,06,01,05,15,12.40
2009,06,01,05,16,12.30
2009,06,01,05,17,12.30
2009,06,01,05,18,12.30
2009,06,01,05,19,12.30
2009,06,01,05,20,12.30
2009,06,01,05,21,12.30
2009,06,01,05,22,12.40
2009,06,01,05,23,12.40
2009,06,01,05,24,12.40
2009,06,01,05,25,12.40
2009,06,01,05,26,12.30
2009,06,01,05,27,12.30
2009,06,01,05,28,12.30
2009,06,01,05,29,12.30
2009,06,01,05,30,12.30
2009,06,01,05,31,12.30
2009,06,01,05,32,12.30
2009,06,01,05,33,12.40
2009,06,01,05,34,12.40
2009,06,01,05,35,12.30
2009,06,01,05,36,12.30
2009,06,01,05,37,12.30
2009,06,01,05,38,12.30
2009,06,01,05,39,12.30
2009,06,01,05,40,12.30
2009,06,01,05,41,12.30
2009,06,01,05,42,12.30
2009,06,01,05,43,12.30
2009,06,01,05,44,12.30
2009,06,01,05,45,12.30
2009,06,01,05,46,12.30
2009,06,01,05,47,12.30
2009,06,01,05,48,12.30
2009,06,01,05,49,12.40
2009,06,01,05,50,12.40
2009,06,01,05,51,12.50
2009,06,01,05,52,12.50
2009,06,01,05,53,12.60
2009,06,01,05,54,12.60
2009,06,01,05,55,12.70
2009,06,01,05,56,12.70
2009,06,01,05,57,12.80
2009,06,01,05,58,12.80
2009,06,01,05,59,12.90
2009,06,01,06,00,13.00
2009,06,01,06,01,13.10
2009,06,01,06,02,13.10
2009,06,01,06,03,13.20
2009,06,01,06,04,13.30
2009,06,01,06,05,13.40
2009,06,01,06,06,13.50
2009,06,01,06,07,13.60
2009,06,01,06,08,13.60
2009,06,01,06,09,13.60
2009,06,01,06,10,13.60
2009,06,01,06,11,13.60
2009,06,01,06,12,13.60
2009,06,01,06,13,13.60
2009,06,01,06,14,13.50
2009,06,01,06,15,13.50
2009,06,01,06,16,13.50
2009,06,01,06,17,13.40
2009,06,01,06,18,13.40
2009,06,01,06,19,13.40
2009,06,01,06,20,13.30
2009,06,01,06,21,13.30
2009,06,01,06,22,13.20
2009,06,01,06,23,13.20
2009,06,01,06,24,13.20
2009,06,01,06,25,13.20
2009,06,01,06,26,13.20
2009,06,01,06,27,13.20
2009,06,01,06,28,13.20
2009,06,01,06,29,13.20
2009,06,01,06,30,13.20
2009,06,01,06,31,13.30
2009,06,01,06,32,13.30
2009,06,01,06,33,13.30
2009,06,01,06,34,13.40
2009,06,01,06,35,13.40
2009,06,01,06,36,13.40
2009,06,01,06,37,13.50
2009,06,01,06,38,13.50
2009,06,01,06,39,13.60
2009,06,01,06,40,13.60
2009,06,01,06,41,13.60
2009,06,01,06,42,13.70
2009,06,01,06,43,13.70
2009,06,01,06,44,13.70
2009,06,01,06,45,13.80
2009,06,01,06,46,13.80
2009,06,01,06,47,13.80
2009,06,01,06,48,13.80
2009,06,01,06,49,13.80
2009,06,01,06,50,13.90
2009,06,01,06,51,13.90
2009,06,01,06,52,13.90
2009,06,01,06,53,13.90
2009,06,01,06,54,14.00
2009,06,01,06,55,14.00
2009,06,01,06,56,14.10
2009,06,01,06,57,14.10
2009,06,01,06,58,14.10
2009,06,01,06,59,14.20
2009,06,01,07,00,14.20
2009,06,01,07,01,14.20
2009,06,01,07,02,14.20
2009,06,01,07,03,14.30
2009,06,01,07,04,14.30
2009,06,01,07,05,14.30
2009,06,01,07,06,14.30
2009,06,01,07,07,14.40
2009,06,01,07,08,14.40
2009,06,01,07,09,14.50
2009,06,01,07,10,14.50
2009,06,01,07,11,14.60
2009,06,01,07,12,14.60
2009,06,01,07,13,14.60
2009,06,01,07,14,14.60
2009,06,01,07,15,14.60
2009,06,01,07,16,14.60
2009,06,01,07,17,14.60
2009,06,01,07,18,14.60
2009,06,01,07,19,14.60
2009,06,01,07,20,14.60
2009,06,01,07,21,14.60
2009,06,01,07,22,14.60
2009,06,01,07,23,14.60
2009,06,01,07,24,14.70
2009,06,01,07,25,14.70
2009,06,01,07,26,14.70
2009,06,01,07,27,14.70
2009,06,01,07,28,14.80
2009,06,01,07,29,14.80
2009,06,01,07,30,14.80
2009,06,01,07,31,14.80
2009,06,01,07,32,14.70
2009,06,01,07,33,14.70
2009,06,01,07,34,14.80
2009,06,01,07,35,14.80
2009,06,01,07,36,14.80
2009,06,01,07,37,14.80
2009,06,01,07,38,14.80
2009,06,01,07,39,14.80
2009,06,01,07,40,14.80
2009,06,01,07,41,14.80
2009,06,01,07,42,14.90
2009,06,01,07,43,14.90
2009,06,01,07,44,15.00
2009,06,01,07,45,15.00
2009,06,01,07,46,15.00
2009,06,01,07,47,15.00
2009,06,01,07,48,15.00
2009,06,01,07,49,15.00
2009,06,01,07,50,15.00
2009,06,01,07,51,15.00
2009,06,01,07,52,15.10
2009,06,01,07,53,15.20
2009,06,01,07,54,15.30
2009,06,01,07,55,15.30
2009,06,01,07,56,15.40
2009,06,01,07,57,15.40
2009,06,01,07,58,15.40
2009,06,01,07,59,15.50
2009,06,01,08,00,15.60
2009,06,01,08,01,15.60
2009,06,01,08,02,15.70
2009,06,01,08,03,15.70
2009,06,01,08,04,15.80
2009,06,01,08,05,15.80
2009,06,01,08,06,15.90
2009,06,01,08,07,16.00
2009,06,01,08,08,16.00
2009,06,01,08,09,16.10
2009,06,01,08,10,16.20
2009,06,01,08,11,16.20
2009,06,01,08,12,16.30
2009,06,01,08,13,16.40
2009,06,01,08,14,16.50
2009,06,01,08,15,16.50
2009,06,01,08,16,16.60
2009,06,01,08,17,16.70
2009,06,01,08,18,16.80
2009,06,01,08,19,16.90
2009,06,01,08,20,16.90
2009,06,01,08,21,17.00
2009,06,01,08,22,17.10
2009,06,01,08,23,17.10
2009,06,01,08,24,17.20
2009,06,01,08,25,17.30
2009,06,01,08,26,17.40
2009,06,01,08,27,17.40
2009,06,01,08,28,17.50
2009,06,01,08,29,17.60
2009,06,01,08,30,17.30
2009,06,01,08,31,17.00
2009,06,01,08,32,16.70
2009,06,01,08,33,16.40
2009,06,01,08,34,16.20
2009,06,01,08,35,16.00
2009,06,01,08,36,15.90
2009,06,01,08,37,15.70
2009,06,01,08,38,15.60
2009,06,01,08,39,15.40
2009,06,01,08,40,15.20
2009,06,01,08,41,15.00
2009,06,01,08,42,15.00
2009,06,01,08,43,15.00
2009,06,01,08,44,15.00
2009,06,01,08,45,14.80
2009,06,01,08,46,14.70
2009,06,01,08,47,14.60
2009,06,01,08,48,14.40
2009,06,01,08,49,14.30
2009,06,01,08,50,14.20
2009,06,01,08,51,14.10
2009,06,01,08,52,14.00
2009,06,01,08,53,13.90
2009,06,01,08,54,13.80
2009,06,01,08,55,13.70
2009,06,01,08,56,13.70
2009,06,01,08,57,13.70
2009,06,01,08,58,13.70
2009,06,01,08,59,13.70
2009,06,01,09,00,13.70
2009,06,01,09,01,13.70
2009,06,01,09,02,13.70
2009,06,01,09,03,13.70
2009,06,01,09,04,13.70
2009,06,01,09,05,13.80
2009,06,01,09,06,13.80
2009,06,01,09,07,13.90
2009,06,01,09,08,14.00
2009,06,01,09,09,14.10
2009,06,01,09,10,14.20
2009,06,01,09,11,14.20
2009,06,01,09,12,14.30
2009,06,01,09,13,14.40
2009,06,01,09,14,14.50
2009,06,01,09,15,14.60
2009,06,01,09,16,14.70
2009,06,01,09,17,14.70
2009,06,01,09,18,14.70
2009,06,01,09,19,14.70
2009,06,01,09,20,14.70
2009,06,01,09,21,14.70
2009,06,01,09,22,14.70
2009,06,01,09,23,14.70
2009,06,01,09,24,14.70
2009,06,01,09,25,14.70
2009,06,01,09,26,14.70
2009,06,01,09,27,14.70
2009,06,01,09,28,14.70
2009,06,01,09,29,14.60
2009,06,01,09,30,14.60
2009,06,01,09,31,14.60
2009,06,01,09,32,14.60
2009,06,01,09,33,14.60
2009,06,01,09,34,14.70
2009,06,01,09,35,14.80
2009,06,01,09,36,14.90
2009,06,01,09,37,15.00
2009,06,01,09,38,15.00
2009,06,01,09,39,15.00
2009,06,01,09,40,15.00
2009,06,01,09,41,15.00
2009,06,01,09,42,15.00
2009,06,01,09,43,15.10
2009,06,01,09,44,15.20
2009,06,01,09,45,15.30
2009,06,01,09,46,15.50
2009,06,01,09,47,15.60
2009,06,01,09,48,15.80
2009,06,01,09,49,15.90
2009,06,01,09,50,16.00
2009,06,01,09,51,16.10
2009,06,01,09,52,16.10
2009,06,01,09,53,16.20
2009,06,01,09,54,16.20
2009,06,01,09,55,16.30
2009,06,01,09,56,16.40
2009,06,01,09,57,16.50
2009,06,01,09,58,16.70
2009,06,01,09,59,16.80
2009,06,01,10,00,16.90
2009,06,01,10,01,17.00
2009,06,01,10,02,17.10
2009,06,01,10,03,17.20
2009,06,01,10,04,17.30
2009,06,01,10,05,17.40
2009,06,01,10,06,17.50
2009,06,01,10,07,17.50
2009,06,01,10,08,17.60
2009,06,01,10,09,17.70
2009,06,01,10,10,17.80
2009,06,01,10,11,17.80
2009,06,01,10,12,17.80
2009,06,01,10,13,17.80
2009,06,01,10,14,17.80
2009,06,01,10,15,17.80
2009,06,01,10,16,17.80
2009,06,01,10,17,17.80
2009,06,01,10,18,17.70
2009,06,01,10,19,17.70
2009,06,01,10,20,17.80
2009,06,01,10,21,17.90
2009,06,01,10,22,17.90
2009,06,01,10,23,18.00
2009,06,01,10,24,17.90
2009,06,01,10,25,17.90
2009,06,01,10,26,17.90
2009,06,01,10,27,17.90
2009,06,01,10,28,17.90
2009,06,01,10,29,17.90
2009,06,01,10,30,18.00
2009,06,01,10,31,18.10
2009,06,01,10,32,18.10
2009,06,01,10,33,18.20
2009,06,01,10,34,18.30
2009,06,01,10,35,18.30
2009,06,01,10,36,18.40
2009,06,01,10,37,18.40
2009,06,01,10,38,18.40
2009,06,01,10,39,18.40
2009,06,01,10,40,18.50
2009,06,01,10,41,18.60
2009,06,01,10,42,18.70
2009,06,01,10,43,18.80
2009,06,01,10,44,18.90
2009,06,01,10,45,18.90
2009,06,01,10,46,19.00
2009,06,01,10,47,19.10
2009,06,01,10,48,19.20
2009,06,01,10,49,19.50
2009,06,01,10,50,19.60
2009,06,01,10,51,19.80
2009,06,01,10,52,19.90
2009,06,01,10,53,19.80
2009,06,01,10,54,19.80
2009,06,01,10,55,19.80
2009,06,01,10,56,19.60
2009,06,01,10,57,19.60
2009,06,01,10,58,19.50
2009,06,01,10,59,19.40
2009,06,01,11,00,19.30
2009,06,01,11,01,19.10
2009,06,01,11,02,18.90
2009,06,01,11,03,18.80
2009,06,01,11,04,18.70
2009,06,01,11,05,18.60
2009,06,01,11,06,18.60
2009,06,01,11,07,18.60
2009,06,01,11,08,18.70
2009,06,01,11,09,18.60
2009,06,01,11,10,18.50
2009,06,01,11,11,18.30
2009,06,01,11,12,18.20
2009,06,01,11,13,18.20
2009,06,01,11,14,18.20
2009,06,01,11,15,18.30
2009,06,01,11,16,18.30
2009,06,01,11,17,18.30
2009,06,01,11,18,18.30
2009,06,01,11,19,18.30
2009,06,01,11,20,18.30
2009,06,01,11,21,18.30
2009,06,01,11,22,18.30
2009,06,01,11,23,18.20
2009,06,01,11,24,18.10
2009,06,01,11,25,17.90
2009,06,01,11,26,17.90
2009,06,01,11,27,17.80
2009,06,01,11,28,17.80
2009,06,01,11,29,17.90
2009,06,01,11,30,18.00
2009,06,01,11,31,18.20
2009,06,01,11,32,18.10
2009,06,01,11,33,18.20
2009,06,01,11,34,18.10
2009,06,01,11,35,18.00
2009,06,01,11,36,17.90
2009,06,01,11,37,17.80
2009,06,01,11,38,17.80
2009,06,01,11,39,17.90
2009,06,01,11,40,18.00
2009,06,01,11,41,18.20
2009,06,01,11,42,18.30
2009,06,01,11,43,18.40
2009,06,01,11,44,18.50
2009,06,01,11,45,18.70
2009,06,01,11,46,19.00
2009,06,01,11,47,19.20
2009,06,01,11,48,19.40
2009,06,01,11,49,19.60
2009,06,01,11,50,19.70
2009,06,01,11,51,19.90
2009,06,01,11,52,20.10
2009,06,01,11,53,20.20
2009,06,01,11,54,20.30
2009,06,01,11,55,20.30
2009,06,01,11,56,20.20
2009,06,01,11,57,20.30
2009,06,01,11,58,20.30
2009,06,01,11,59,20.20
2009,06,01,12,00,20.10
2009,06,01,12,01,19.90
2009,06,01,12,02,19.90
2009,06,01,12,03,20.00
2009,06,01,12,04,20.00
2009,06,01,12,05,20.00
2009,06,01,12,06,20.00
2009,06,01,12,07,19.90
2009,06,01,12,08,19.80
2009,06,01,12,09,19.70
2009,06,01,12,10,19.50
2009,06,01,12,11,19.30
2009,06,01,12,12,19.20
2009,06,01,12,13,19.10
2009,06,01,12,14,18.90
2009,06,01,12,15,18.90
2009,06,01,12,16,18.90
2009,06,01,12,17,18.90
2009,06,01,12,18,18.90
2009,06,01,12,19,18.90
2009,06,01,12,20,18.90
2009,06,01,12,21,18.90
2009,06,01,12,22,18.70
2009,06,01,12,23,18.50
2009,06,01,12,24,18.30
2009,06,01,12,25,18.20
2009,06,01,12,26,18.20
2009,06,01,12,27,18.20
2009,06,01,12,28,18.10
2009,06,01,12,29,18.10
2009,06,01,12,30,18.10
2009,06,01,12,31,18.10
2009,06,01,12,32,18.10
2009,06,01,12,33,18.20
2009,06,01,12,34,18.40
2009,06,01,12,35,18.50
2009,06,01,12,36,18.70
2009,06,01,12,37,18.80
2009,06,01,12,38,18.70
2009,06,01,12,39,18.70
2009,06,01,12,40,18.70
2009,06,01,12,41,18.70
2009,06,01,12,42,18.70
2009,06,01,12,43,18.70
2009,06,01,12,44,18.70
2009,06,01,12,45,18.80
2009,06,01,12,46,18.90
2009,06,01,12,47,19.00
2009,06,01,12,48,19.20
2009,06,01,12,49,19.40
2009,06,01,12,50,19.60
2009,06,01,12,51,19.70
2009,06,01,12,52,19.80
2009,06,01,12,53,19.90
2009,06,01,12,54,20.00
2009,06,01,12,55,20.00
2009,06,01,12,56,20.10
2009,06,01,12,57,20.10
2009,06,01,12,58,20.10
2009,06,01,12,59,20.10
2009,06,01,13,00,20.10
2009,06,01,13,01,20.20
2009,06,01,13,02,20.40
2009,06,01,13,03,20.50
2009,06,01,13,04,20.60
2009,06,01,13,05,20.60
2009,06,01,13,06,20.70
2009,06,01,13,07,20.70
2009,06,01,13,08,20.90
2009,06,01,13,09,21.00
2009,06,01,13,10,21.10
2009,06,01,13,11,21.30
2009,06,01,13,12,21.50
2009,06,01,13,13,21.70
2009,06,01,13,14,21.90
2009,06,01,13,15,22.10
2009,06,01,13,16,22.30
2009,06,01,13,17,22.40
2009,06,01,13,18,22.50
2009,06,01,13,19,22.60
2009,06,01,13,20,22.70
2009,06,01,13,21,22.70
2009,06,01,13,22,22.60
2009,06,01,13,23,22.30
2009,06,01,13,24,22.20
2009,06,01,13,25,22.00
2009,06,01,13,26,21.90
2009,06,01,13,27,22.00
2009,06,01,13,28,22.00
2009,06,01,13,29,22.10
2009,06,01,13,30,22.20
2009,06,01,13,31,22.30
2009,06,01,13,32,22.50
2009,06,01,13,33,22.60
2009,06,01,13,34,22.70
2009,06,01,13,35,22.80
2009,06,01,13,36,22.80
2009,06,01,13,37,22.70
2009,06,01,13,38,22.60
2009,06,01,13,39,22.40
2009,06,01,13,40,22.20
2009,06,01,13,41,22.10
2009,06,01,13,42,21.90
2009,06,01,13,43,21.80
2009,06,01,13,44,21.90
2009,06,01,13,45,22.00
2009,06,01,13,46,22.00
2009,06,01,13,47,22.00
2009,06,01,13,48,21.90
2009,06,01,13,49,21.90
2009,06,01,13,50,22.00
2009,06,01,13,51,22.20
2009,06,01,13,52,22.20
2009,06,01,13,53,22.20
2009,06,01,13,54,22.20
2009,06,01,13,55,22.20
2009,06,01,13,56,22.20
2009,06,01,13,57,22.20
2009,06,01,13,58,22.30
2009,06,01,13,59,22.30
2009,06,01,14,00,22.30
2009,06,01,14,01,22.20
2009,06,01,14,02,22.20
2009,06,01,14,03,22.20
2009,06,01,14,04,22.20
2009,06,01,14,05,22.20
2009,06,01,14,06,22.30
2009,06,01,14,07,22.40
2009,06,01,14,08,22.40
2009,06,01,14,09,22.40
2009,06,01,14,10,22.50
2009,06,01,14,11,22.50
2009,06,01,14,12,22.40
2009,06,01,14,13,22.30
2009,06,01,14,14,22.10
2009,06,01,14,15,22.20
2009,06,01,14,16,22.20
2009,06,01,14,17,22.40
2009,06,01,14,18,22.40
2009,06,01,14,19,22.40
2009,06,01,14,20,22.30
2009,06,01,14,21,22.40
2009,06,01,14,22,22.50
2009,06,01,14,23,22.70
2009,06,01,14,24,22.90
2009,06,01,14,25,23.10
2009,06,01,14,26,23.10
2009,06,01,14,27,23.10
2009,06,01,14,28,23.20
2009,06,01,14,29,23.20
2009,06,01,14,30,23.20
2009,06,01,14,31,23.10
2009,06,01,14,32,23.10
2009,06,01,14,33,23.10
2009,06,01,14,34,23.20
2009,06,01,14,35,23.30
2009,06,01,14,36,23.40
2009,06,01,14,37,23.30
2009,06,01,14,38,23.30
2009,06,01,14,39,23.30
2009,06,01,14,40,23.40
2009,06,01,14,41,23.50
2009,06,01,14,42,23.60
2009,06,01,14,43,23.60
2009,06,01,14,44,23.60
2009,06,01,14,45,23.60
2009,06,01,14,46,23.50
2009,06,01,14,47,23.30
2009,06,01,14,48,23.00
2009,06,01,14,49,23.00
2009,06,01,14,50,23.10
2009,06,01,14,51,23.00
2009,06,01,14,52,22.90
2009,06,01,14,53,22.80
2009,06,01,14,54,22.60
2009,06,01,14,55,22.60
2009,06,01,14,56,22.60
2009,06,01,14,57,22.60
2009,06,01,14,58,22.60
2009,06,01,14,59,22.60
2009,06,01,15,00,22.60
2009,06,01,15,01,22.50
2009,06,01,15,02,22.40
2009,06,01,15,03,22.30
2009,06,01,15,04,22.20
2009,06,01,15,05,22.00
2009,06,01,15,06,21.90
2009,06,01,15,07,21.80
2009,06,01,15,08,21.80
2009,06,01,15,09,21.70
2009,06,01,15,10,21.70
2009,06,01,15,11,21.80
2009,06,01,15,12,21.80
2009,06,01,15,13,21.80
2009,06,01,15,14,21.80
2009,06,01,15,15,21.80
2009,06,01,15,16,21.90
2009,06,01,15,17,21.90
2009,06,01,15,18,22.00
2009,06,01,15,19,22.10
2009,06,01,15,20,22.00
2009,06,01,15,21,22.00
2009,06,01,15,22,22.10
2009,06,01,15,23,22.10
2009,06,01,15,24,22.00
2009,06,01,15,25,22.00
2009,06,01,15,26,21.90
2009,06,01,15,27,21.90
2009,06,01,15,28,21.90
2009,06,01,15,29,21.80
2009,06,01,15,30,21.70
2009,06,01,15,31,21.60
2009,06,01,15,32,21.60
2009,06,01,15,33,21.70
2009,06,01,15,34,21.70
2009,06,01,15,35,21.80
2009,06,01,15,36,21.80
2009,06,01,15,37,21.70
2009,06,01,15,38,21.70
2009,06,01,15,39,21.80
2009,06,01,15,40,21.90
2009,06,01,15,41,22.10
2009,06,01,15,42,22.20
2009,06,01,15,43,22.40
2009,06,01,15,44,22.60
2009,06,01,15,45,22.70
2009,06,01,15,46,22.80
2009,06,01,15,47,23.10
2009,06,01,15,48,23.30
2009,06,01,15,49,23.50
2009,06,01,15,50,23.60
2009,06,01,15,51,23.60
2009,06,01,15,52,23.70
2009,06,01,15,53,23.60
2009,06,01,15,54,23.50
2009,06,01,15,55,23.50
2009,06,01,15,56,23.40
2009,06,01,15,57,23.40
2009,06,01,15,58,23.40
2009,06,01,15,59,23.30
2009,06,01,16,00,23.30
2009,06,01,16,01,23.30
2009,06,01,16,02,23.50
2009,06,01,16,03,23.70
2009,06,01,16,04,23.70
2009,06,01,16,05,23.80
2009,06,01,16,06,23.80
2009,06,01,16,07,23.80
2009,06,01,16,08,23.80
2009,06,01,16,09,23.80
2009,06,01,16,10,23.90
2009,06,01,16,11,24.00
2009,06,01,16,12,24.10
2009,06,01,16,13,24.20
2009,06,01,16,14,24.30
2009,06,01,16,15,24.40
2009,06,01,16,16,24.30
2009,06,01,16,17,24.20
2009,06,01,16,18,24.10
2009,06,01,16,19,24.00
2009,06,01,16,20,24.00
2009,06,01,16,21,24.00
2009,06,01,16,22,23.90
2009,06,01,16,23,23.90
2009,06,01,16,24,23.80
2009,06,01,16,25,23.90
2009,06,01,16,26,23.90
2009,06,01,16,27,23.90
2009,06,01,16,28,23.90
2009,06,01,16,29,24.00
2009,06,01,16,30,24.10
2009,06,01,16,31,24.20
2009,06,01,16,32,24.30
2009,06,01,16,33,24.20
2009,06,01,16,34,24.30
2009,06,01,16,35,24.40
2009,06,01,16,36,24.40
2009,06,01,16,37,24.30
2009,06,01,16,38,24.10
2009,06,01,16,39,23.80
2009,06,01,16,40,23.50
2009,06,01,16,41,23.30
2009,06,01,16,42,23.30
2009,06,01,16,43,23.20
2009,06,01,16,44,23.20
2009,06,01,16,45,23.20
2009,06,01,16,46,23.30
2009,06,01,16,47,23.40
2009,06,01,16,48,23.50
2009,06,01,16,49,23.60
2009,06,01,16,50,23.60
2009,06,01,16,51,23.70
2009,06,01,16,52,23.80
2009,06,01,16,53,23.80
2009,06,01,16,54,23.90
2009,06,01,16,55,24.00
2009,06,01,16,56,24.10
2009,06,01,16,57,24.10
2009,06,01,16,58,24.10
2009,06,01,16,59,24.10
2009,06,01,17,00,24.10
2009,06,01,17,01,24.10
2009,06,01,17,02,24.10
2009,06,01,17,03,24.00
2009,06,01,17,04,23.90
2009,06,01,17,05,23.90
2009,06,01,17,06,23.90
2009,06,01,17,07,23.90
2009,06,01,17,08,23.80
2009,06,01,17,09,23.90
2009,06,01,17,10,23.90
2009,06,01,17,11,24.00
2009,06,01,17,12,24.10
2009,06,01,17,13,24.10
2009,06,01,17,14,24.10
2009,06,01,17,15,24.00
2009,06,01,17,16,24.00
2009,06,01,17,17,24.00
2009,06,01,17,18,24.00
2009,06,01,17,19,24.10